DK5BM-6 Weather Reports


time (UTC)temp
F
wind
direction
speed
knots
gust
knots
rain 1hr
in
rain 24hr
in
rain mn
in
humidity
%
barometer
mb
20260506195659 48 152 0.0 6.1 0.01 0.28 0.28 97 1012.8
20260506195559 48 147 0.0 6.1 0.01 0.28 0.28 97 1012.7
20260506195459 48 148 1.7 6.1 0.01 0.28 0.28 97 1012.6
20260506195359 48 148 2.6 6.1 0.02 0.28 0.28 97 1012.6
20260506195300 48 150 1.7 6.1 0.02 0.28 0.28 97 1012.8
20260506195159 48 149 3.5 6.1 0.02 0.28 0.28 97 1012.8
20260506195059 48 147 3.5 5.2 0.02 0.28 0.28 97 1012.6
20260506194959 48 145 0.9 5.2 0.02 0.28 0.28 98 1012.7
20260506194859 48 144 1.7 5.2 0.02 0.28 0.28 97 1013.0
20260506194501 48 146 0.9 7.8 0.02 0.28 0.28 97 1012.9
20260506194400 48 144 1.7 7.8 0.02 0.28 0.28 97 1012.9
20260506194259 48 145 0.9 7.8 0.02 0.28 0.28 97 1012.9
20260506194159 48 145 1.7 7.8 0.04 0.28 0.28 97 1012.8
20260506194059 48 142 1.7 7.8 0.04 0.28 0.28 97 1012.8
20260506193959 48 141 1.7 7.8 0.04 0.28 0.28 97 1012.8
20260506193900 48 139 0.9 7.8 0.02 0.27 0.27 97 1012.8
20260506193659 48 139 2.6 7.8 0.02 0.27 0.27 97 1012.8
20260506193559 48 144 3.5 7.8 0.02 0.27 0.27 97 1012.7
20260506193459 48 145 1.7 7.0 0.04 0.27 0.27 97 1012.8
20260506193359 48 148 3.5 7.0 0.04 0.27 0.27 97 1012.5
20260506193300 48 147 1.7 6.1 0.04 0.27 0.27 97 1012.5
20260506193059 48 148 0.9 6.1 0.04 0.27 0.27 97 1012.6
20260506192900 48 151 0.9 6.1 0.04 0.27 0.27 97 1012.6
20260506192759 48 156 2.6 6.1 0.04 0.27 0.27 97 1012.5
20260506192700 48 159 3.5 6.1 0.04 0.27 0.27 97 1012.4
20260506192559 48 159 3.5 6.1 0.04 0.27 0.27 97 1012.6
20260506192459 48 163 1.7 6.1 0.05 0.27 0.27 97 1012.5
20260506192359 48 166 1.7 6.1 0.05 0.27 0.27 97 1012.4
20260506192259 48 165 0.9 6.1 0.05 0.27 0.27 97 1012.8
20260506192200 48 166 3.5 6.1 0.05 0.27 0.27 97 1012.5
20260506192059 48 165 1.7 6.1 0.05 0.27 0.27 97 1012.4
20260506191959 48 166 3.5 6.1 0.05 0.27 0.27 97 1012.4
20260506191859 48 166 3.5 6.1 0.05 0.27 0.27 97 1012.6
20260506191800 48 164 1.7 6.1 0.05 0.27 0.27 97 1012.4
20260506191659 48 161 1.7 6.1 0.05 0.27 0.27 97 1012.4
20260506191559 48 156 1.7 6.1 0.05 0.27 0.27 97 1012.7
20260506191501 48 150 1.7 6.1 0.05 0.27 0.27 97 1012.3
20260506191359 48 143 1.7 3.5 0.05 0.27 0.27 97 1012.3
20260506191259 48 142 1.7 3.5 0.05 0.27 0.27 97 1012.3
20260506191200 48 142 1.7 3.5 0.05 0.27 0.27 97 1012.2
20260506191100 48 141 1.7 5.2 0.06 0.27 0.27 97 1012.2
20260506190959 48 138 1.7 5.2 0.06 0.27 0.27 97 1012.3
20260506190859 48 136 1.7 5.2 0.06 0.27 0.27 97 1012.0
20260506190759 48 140 1.7 7.0 0.06 0.27 0.27 97 1012.2
20260506190700 48 146 0.0 7.0 0.06 0.27 0.27 97 1012.3
20260506190559 48 153 1.7 7.0 0.06 0.27 0.27 97 1012.0
20260506190459 48 159 1.7 7.0 0.06 0.27 0.27 97 1012.3
20260506190359 48 164 1.7 7.0 0.06 0.27 0.27 97 1012.2
20260506190300 48 162 1.7 7.0 0.06 0.27 0.27 97 1012.2
20260506190200 49 164 1.7 7.0 0.07 0.27 0.27 97 1012.1
20260506190059 48 167 0.9 7.0 0.07 0.27 0.27 97 1012.3
20260506190001 49 168 0.0 7.0 0.07 0.27 0.27 97 1012.2
20260506185859 49 168 0.0 7.0 0.07 0.27 0.27 97 1011.9
20260506185759 49 166 2.6 7.0 0.07 0.27 0.27 97 1012.1
20260506185700 49 159 2.6 7.0 0.07 0.27 0.27 97 1012.2
20260506185600 49 152 2.6 7.0 0.07 0.27 0.27 97 1012.3
20260506185359 49 139 1.7 7.0 0.06 0.26 0.26 97 1012.1
20260506185259 49 143 0.9 7.0 0.06 0.26 0.26 97 1012.0
20260506185200 49 140 0.9 7.0 0.06 0.26 0.26 97 1012.2
20260506185059 49 131 0.9 7.0 0.06 0.26 0.26 97 1012.2
20260506184959 49 122 0.9 7.0 0.06 0.26 0.26 97 1012.0
20260506184859 49 114 1.7 7.0 0.06 0.26 0.26 97 1012.1
20260506184759 49 106 3.5 7.0 0.06 0.26 0.26 97 1012.1
20260506184501 49 92 0.9 5.2 0.06 0.26 0.26 97 1012.1
20260506184359 49 90 0.9 5.2 0.06 0.26 0.26 97 1011.9
20260506184259 49 90 0.0 5.2 0.07 0.26 0.26 97 1011.9
20260506184200 49 90 1.7 5.2 0.06 0.25 0.25 97 1012.1
20260506184000 49 90 1.7 5.2 0.06 0.25 0.25 97 1011.9
20260506183859 49 90 1.7 5.2 0.06 0.25 0.25 97 1012.0
20260506183759 49 91 1.7 5.2 0.06 0.25 0.25 97 1012.0
20260506183700 49 92 1.7 5.2 0.06 0.25 0.25 97 1011.8
20260506183600 49 94 1.7 5.2 0.06 0.25 0.25 97 1011.8
20260506183459 49 100 0.9 5.2 0.05 0.24 0.24 97 1011.9
20260506183359 49 105 0.9 5.2 0.05 0.24 0.24 97 1011.9
20260506183259 49 107 0.9 5.2 0.05 0.24 0.24 97 1011.9
20260506183200 49 110 0.9 5.2 0.06 0.24 0.24 97 1011.8
20260506183100 49 115 0.9 5.2 0.06 0.24 0.24 97 1011.8
20260506183001 49 121 0.9 5.2 0.06 0.24 0.24 97 1011.6
20260506182859 49 131 1.7 5.2 0.06 0.24 0.24 97 1011.8
20260506182759 49 141 0.0 3.5 0.06 0.24 0.24 97 1011.8
20260506182700 49 146 0.9 3.5 0.06 0.24 0.24 97 1011.8
20260506182600 49 149 1.7 3.5 0.06 0.24 0.24 97 1011.6
20260506182459 49 125 1.7 3.5 0.05 0.22 0.22 97 1011.8
20260506182359 49 112 0.0 3.5 0.05 0.22 0.22 97 1011.7
20260506182259 49 112 0.0 3.5 0.05 0.22 0.22 97 1011.7
20260506182159 49 112 0.0 3.5 0.05 0.22 0.22 97 1011.8
20260506182100 49 117 0.0 3.5 0.05 0.22 0.22 97 1011.7
20260506182000 49 122 0.0 3.5 0.06 0.22 0.22 97 1011.7
20260506181859 49 127 0.0 3.5 0.06 0.22 0.22 97 1011.6
20260506181759 49 128 0.0 3.5 0.06 0.22 0.22 97 1011.6
20260506181659 49 127 0.0 3.5 0.06 0.22 0.22 97 1011.6
20260506181600 49 129 1.7 3.5 0.06 0.22 0.22 97 1011.5
20260506181501 49 134 0.0 1.7 0.06 0.22 0.22 97 1011.4
20260506181300 49 136 0.0 1.7 0.06 0.22 0.22 97 1011.8
20260506181200 49 144 0.0 1.7 0.06 0.22 0.22 97 1011.3
20260506181059 49 147 0.9 1.7 0.05 0.21 0.21 97 1011.7
20260506180859 49 147 0.9 1.7 0.05 0.21 0.21 97 1011.6
20260506180759 49 151 0.9 1.7 0.05 0.21 0.21 97 1011.6
20260506180659 50 154 0.0 1.7 0.06 0.21 0.21 97 1011.3
20260506180600 49 152 0.0 1.7 0.06 0.21 0.21 97 1011.7
20260506180500 49 152 0.0 1.7 0.06 0.21 0.21 97 1011.6
20260506180359 49 152 0.0 1.7 0.06 0.21 0.21 97 1011.7
20260506180259 49 155 0.0 1.7 0.06 0.21 0.21 97 1011.8
20260506180200 49 150 0.0 3.5 0.05 0.20 0.20 97 1011.6
20260506180100 49 145 0.0 3.5 0.05 0.20 0.20 97 1011.6
20260506180002 49 142 0.0 3.5 0.05 0.20 0.20 97 1011.6
20260506175900 49 139 0.0 3.5 0.05 0.20 0.20 97 1011.6
20260506175759 49 137 0.0 3.5 0.05 0.20 0.20 97 1011.5
20260506175659 50 135 0.0 3.5 0.05 0.20 0.20 97 1011.4
20260506175559 50 135 0.0 3.5 0.05 0.20 0.20 97 1011.7
20260506175400 50 135 0.0 3.5 0.05 0.20 0.20 97 1011.4
20260506175300 50 134 0.0 3.5 0.05 0.20 0.20 97 1011.5
20260506175159 50 133 1.7 3.5 0.05 0.20 0.20 96 1011.5
20260506175059 50 131 1.7 3.5 0.05 0.20 0.20 96 1011.2
20260506175000 50 130 1.7 3.5 0.05 0.20 0.20 96 1011.6
20260506174900 50 131 1.7 3.5 0.05 0.20 0.20 96 1011.6
20260506174759 50 133 1.7 3.5 0.05 0.20 0.20 96 1011.5
20260506174659 50 136 1.7 3.5 0.05 0.20 0.20 96 1011.7
20260506174559 50 139 0.9 1.7 0.05 0.20 0.20 96 1011.5
20260506174501 50 139 1.7 1.7 0.05 0.20 0.20 96 1011.5
20260506174359 50 144 0.0 3.5 0.04 0.19 0.19 96 1011.4
20260506174259 50 154 0.0 3.5 0.04 0.19 0.19 96 1011.3
20260506174200 50 161 0.0 3.5 0.05 0.19 0.19 96 1011.3
20260506174100 50 165 0.0 3.5 0.05 0.19 0.19 96 1011.3
20260506173959 50 167 0.0 3.5 0.06 0.19 0.19 96 1011.4
20260506173859 50 167 0.0 3.5 0.06 0.19 0.19 96 1011.6
20260506173800 50 163 0.0 3.5 0.06 0.19 0.19 96 1011.4
20260506173700 50 162 0.0 3.5 0.07 0.19 0.19 96 1011.5
20260506173559 50 158 0.0 3.5 0.07 0.19 0.19 96 1011.5
20260506173459 50 152 1.7 3.5 0.07 0.19 0.19 96 1011.6
20260506173359 50 146 1.7 3.5 0.08 0.19 0.19 96 1011.5
20260506173259 50 137 2.6 3.5 0.08 0.19 0.19 96 1011.3
20260506173201 50 122 1.7 3.5 0.07 0.18 0.18 96 1011.3
20260506173100 50 117 0.0 3.5 0.07 0.18 0.18 96 1011.5
20260506173001 50 115 0.0 3.5 0.07 0.18 0.18 96 1011.3
20260506172900 50 115 0.0 3.5 0.08 0.18 0.18 96 1011.4
20260506172759 50 115 1.7 3.5 0.08 0.18 0.18 96 1011.3
20260506172659 50 115 0.9 3.5 0.08 0.18 0.18 96 1011.3
20260506172459 50 118 0.9 3.5 0.08 0.18 0.18 96 1011.2
20260506172400 50 119 0.9 3.5 0.08 0.18 0.18 96 1011.3
20260506172200 50 129 0.9 3.5 0.08 0.18 0.18 96 1011.3
20260506172059 50 133 1.7 3.5 0.07 0.17 0.17 96 1011.3
20260506171959 50 144 0.0 3.5 0.07 0.17 0.17 96 1011.2
20260506171859 50 151 0.9 3.5 0.07 0.17 0.17 96 1011.2
20260506171800 50 156 0.9 3.5 0.07 0.17 0.17 96 1011.4
20260506171700 50 156 1.7 5.2 0.07 0.18 0.17 96 1011.1
20260506171559 51 154 0.0 5.2 0.07 0.18 0.17 96 1011.3
20260506171501 51 152 0.0 5.2 0.07 0.18 0.17 96 1011.2
20260506171359 50 152 0.0 5.2 0.07 0.18 0.17 96 1011.4
20260506171259 50 151 1.7 5.2 0.07 0.18 0.17 96 1011.3
20260506171059 51 157 1.7 5.2 0.07 0.20 0.17 96 1011.3
20260506171000 51 154 1.7 5.2 0.07 0.20 0.17 96 1011.3
20260506170900 51 149 1.7 5.2 0.07 0.20 0.17 96 1011.4
20260506170759 51 146 0.0 5.2 0.07 0.21 0.17 96 1011.2
20260506170559 51 148 0.0 5.2 0.06 0.20 0.15 96 1011.3
20260506170259 51 122 0.9 5.2 0.06 0.21 0.15 96 1011.4
20260506170159 51 115 0.9 5.2 0.06 0.21 0.15 96 1011.2
20260506170001 51 110 0.0 5.2 0.06 0.21 0.15 96 1011.1
20260506165859 51 113 0.0 5.2 0.06 0.22 0.15 96 1011.3
20260506165800 51 115 0.9 5.2 0.06 0.22 0.15 96 1011.4
20260506165700 51 113 2.6 5.2 0.06 0.24 0.15 96 1011.3
20260506165600 51 111 1.7 5.2 0.06 0.24 0.15 96 1011.2
20260506165459 51 114 1.7 5.2 0.06 0.24 0.15 96 1011.3
20260506165359 51 120 1.7 7.0 0.06 0.25 0.15 96 1011.2
20260506165259 51 128 1.7 7.0 0.06 0.26 0.15 96 1011.2
20260506165200 51 135 1.7 7.0 0.06 0.26 0.15 96 1011.1
20260506165100 51 137 0.0 7.0 0.06 0.26 0.15 96 1011.2
20260506164959 51 137 3.5 7.0 0.06 0.26 0.15 96 1011.3
20260506164859 51 138 3.5 7.0 0.06 0.26 0.15 96 1011.4
20260506164759 51 138 3.5 7.0 0.06 0.26 0.15 96 1011.3
20260506164559 51 139 3.5 7.0 0.06 0.26 0.15 96 1011.2
20260506164501 51 140 3.5 7.0 0.06 0.26 0.15 96 1011.2
20260506164359 51 143 3.5 7.0 0.06 0.26 0.15 95 1011.3
20260506164259 52 138 0.0 1.7 0.05 0.25 0.14 96 1011.2
20260506164200 52 140 0.9 1.7 0.05 0.25 0.14 95 1011.1
20260506164100 52 148 0.9 1.7 0.05 0.25 0.14 95 1011.2
20260506163959 52 150 0.9 1.7 0.04 0.24 0.13 95 1011.4
20260506163859 52 154 0.0 1.7 0.04 0.24 0.13 95 1011.3
20260506163700 52 190 0.0 1.7 0.02 0.22 0.12 95 1011.0
20260506163500 52 190 0.0 1.7 0.02 0.22 0.12 95 1011.1
20260506163359 52 190 0.0 1.7 0.01 0.21 0.11 95 1010.9
20260506163259 52 190 0.0 1.7 0.01 0.21 0.11 95 1011.1
20260506163159 52 204 0.9 1.7 0.01 0.21 0.11 95 1011.1
20260506163100 52 217 0.9 1.7 0.01 0.21 0.11 95 1011.2
20260506163001 52 221 0.0 1.7 0.00 0.20 0.09 95 1011.1
20260506162859 52 222 0.0 1.7 0.00 0.20 0.09 95 1011.2
20260506162759 52 224 0.0 1.7 0.00 0.20 0.09 95 1011.2
20260506162700 53 225 0.0 1.7 0.00 0.20 0.09 95 1011.0
20260506162600 52 225 0.0 1.7 0.00 0.20 0.09 95 1011.1
20260506162459 52 222 0.0 1.7 0.00 0.20 0.09 95 1011.1
20260506162359 52 221 0.0 1.7 0.00 0.20 0.09 95 1011.2
20260506162259 52 223 0.0 3.5 0.00 0.20 0.09 95 1011.0
20260506162200 52 231 0.9 3.5 0.00 0.20 0.09 95 1011.1
20260506162100 52 236 0.9 3.5 0.00 0.20 0.09 95 1011.0
20260506161859 52 243 0.9 3.5 0.00 0.20 0.09 95 1011.0
20260506161759 53 242 0.0 3.5 0.00 0.20 0.09 95 1010.9
20260506161659 52 240 0.0 3.5 0.00 0.20 0.09 95 1011.0
20260506161600 52 236 0.9 3.5 0.00 0.20 0.09 95 1010.8
20260506161501 53 237 0.0 3.5 0.00 0.20 0.09 95 1010.8
20260506161259 52 235 1.7 3.5 0.00 0.20 0.09 95 1010.9
20260506161200 52 232 1.7 3.5 0.00 0.20 0.09 95 1011.2
20260506161100 52 229 1.7 3.5 0.00 0.20 0.09 95 1011.1
20260506160959 52 225 1.7 3.5 0.00 0.20 0.09 95 1010.9
20260506160859 52 221 0.0 3.5 0.00 0.20 0.09 95 1011.1
20260506160759 52 220 0.0 3.5 0.00 0.20 0.09 95 1011.0
20260506160700 52 217 1.7 3.5 0.00 0.20 0.09 94 1011.2
20260506160459 52 219 1.7 3.5 0.00 0.20 0.09 94 1011.0
20260506160359 52 218 1.7 3.5 0.00 0.20 0.09 94 1011.1
20260506160300 52 217 0.0 1.7 0.00 0.20 0.09 94 1010.9
20260506160200 52 216 0.0 1.7 0.00 0.20 0.09 94 1010.9
20260506160100 52 215 0.0 1.7 0.00 0.20 0.09 94 1011.1
20260506160002 52 215 0.0 1.7 0.00 0.20 0.09 94 1011.0
20260506155700 53 217 0.0 1.7 0.00 0.20 0.09 94 1011.1
20260506155559 53 216 0.0 1.7 0.00 0.20 0.09 94 1011.0
20260506155459 53 220 0.0 1.7 0.00 0.20 0.09 94 1011.0
20260506155400 53 222 0.0 1.7 0.00 0.20 0.09 94 1010.9
20260506155200 52 222 0.0 1.7 0.00 0.20 0.09 94 1010.9
20260506155100 52 220 0.0 1.7 0.00 0.20 0.09 94 1010.8
20260506154959 52 220 0.9 1.7 0.00 0.20 0.09 94 1010.9
20260506154859 53 219 0.0 1.7 0.00 0.20 0.09 94 1010.9
20260506154800 52 220 0.0 1.7 0.00 0.20 0.09 94 1010.9
20260506154700 52 222 0.0 1.7 0.00 0.20 0.09 94 1010.7
20260506154600 53 225 0.9 1.7 0.00 0.20 0.09 94 1010.9
20260506154501 53 216 0.9 1.7 0.00 0.20 0.09 94 1010.9
20260506154400 53 208 0.0 1.7 0.00 0.20 0.09 94 1010.8
20260506154300 53 208 0.0 1.7 0.00 0.20 0.09 94 1011.0
20260506154200 53 207 0.0 1.7 0.00 0.20 0.09 93 1010.9
20260506154059 53 206 0.0 1.7 0.00 0.20 0.09 93 1010.7
20260506153959 53 203 0.0 3.5 0.00 0.20 0.09 93 1010.7
20260506153859 53 198 0.0 3.5 0.00 0.20 0.09 93 1010.9
20260506153800 53 196 0.0 3.5 0.00 0.20 0.09 93 1010.9
20260506153700 53 194 0.0 3.5 0.00 0.20 0.09 93 1011.0
20260506153559 53 193 0.0 3.5 0.00 0.20 0.09 93 1010.9
20260506153359 52 192 0.0 3.5 0.00 0.20 0.09 93 1010.8
20260506153300 52 191 0.0 3.5 0.00 0.20 0.09 93 1010.8
20260506153200 52 190 0.0 3.5 0.00 0.20 0.09 93 1010.7
20260506153059 52 189 0.9 3.5 0.00 0.20 0.09 93 1010.8
20260506152900 52 190 1.7 1.7 0.00 0.20 0.09 93 1010.9
20260506152759 52 194 0.0 1.7 0.00 0.20 0.09 93 1010.9
20260506152659 52 200 0.9 1.7 0.00 0.20 0.09 93 1010.8
20260506152600 53 203 0.0 1.7 0.00 0.20 0.09 93 1010.7
20260506152500 53 195 0.0 1.7 0.00 0.20 0.09 93 1010.6
20260506152400 52 197 0.0 1.7 0.00 0.20 0.09 93 1010.7
20260506152159 52 200 0.0 1.7 0.00 0.20 0.09 93 1010.8
20260506151900 53 185 0.0 3.5 0.00 0.20 0.09 93 1010.9
20260506151800 53 195 0.0 3.5 0.01 0.20 0.09 93 1011.0
20260506151700 53 204 0.0 3.5 0.01 0.20 0.09 93 1010.8
20260506151600 53 208 0.0 3.5 0.01 0.20 0.09 93 1010.8
20260506151501 53 212 0.0 3.5 0.01 0.20 0.09 93 1010.8
20260506151359 52 212 0.0 3.5 0.01 0.20 0.09 93 1010.8
20260506151259 52 211 0.0 3.5 0.01 0.20 0.09 93 1010.9
20260506151200 52 211 0.0 3.5 0.01 0.20 0.09 93 1010.9
20260506151000 52 212 0.0 3.5 0.01 0.20 0.09 93 1010.8
20260506150900 52 212 1.7 3.5 0.01 0.20 0.09 93 1010.9
20260506150759 52 214 1.7 3.5 0.01 0.20 0.09 93 1010.9
20260506150659 52 211 0.9 3.5 0.01 0.20 0.09 93 1010.8
20260506150559 52 207 1.7 3.5 0.01 0.20 0.09 93 1010.8
20260506150459 52 203 0.9 3.5 0.01 0.20 0.09 93 1010.7
20260506150400 52 200 0.0 3.5 0.01 0.20 0.09 93 1011.0
20260506150304 52 198 0.0 3.5 0.01 0.20 0.09 93 1010.7
20260506150200 53 195 0.0 3.5 0.01 0.20 0.09 93 1010.7
20260506150059 53 193 0.0 3.5 0.01 0.20 0.09 93 1010.9
20260506150001 52 192 0.0 3.5 0.01 0.20 0.09 93 1010.6
20260506145859 52 190 0.9 3.5 0.01 0.20 0.09 93 1010.5
20260506145700 52 193 0.0 3.5 0.01 0.20 0.09 93 1010.8
20260506145559 52 193 0.9 3.5 0.01 0.20 0.09 93 1010.7
20260506145500 52 194 0.0 3.5 0.01 0.20 0.09 93 1010.6
20260506145400 52 196 0.0 3.5 0.01 0.20 0.09 93 1010.8
20260506145200 52 199 0.0 3.5 0.01 0.20 0.09 93 1010.4
20260506144959 52 185 0.0 5.2 0.01 0.20 0.09 92 1010.4
20260506144900 52 186 0.0 5.2 0.01 0.20 0.09 93 1010.5
20260506144800 52 184 0.9 5.2 0.01 0.20 0.09 93 1010.7
20260506144700 52 184 0.9 5.2 0.01 0.20 0.09 93 1010.4
20260506144559 52 185 0.9 5.2 0.01 0.20 0.09 93 1010.5
20260506144501 52 186 0.9 5.2 0.01 0.20 0.09 93 1010.8
20260506144300 52 188 0.9 5.2 0.02 0.20 0.09 93 1010.6
20260506144100 52 203 1.7 5.2 0.02 0.20 0.09 93 1010.6
20260506143959 52 214 1.7 3.5 0.02 0.20 0.09 93 1010.7
20260506143659 52 223 0.9 3.5 0.02 0.20 0.09 93 1010.7
20260506143559 52 223 0.9 3.5 0.02 0.20 0.09 93 1010.6
20260506143400 52 217 1.7 3.5 0.02 0.20 0.09 93 1010.5
20260506143259 52 218 1.7 3.5 0.02 0.20 0.09 93 1010.7
20260506143159 52 224 1.7 3.5 0.02 0.20 0.09 93 1010.5
20260506143100 52 230 1.7 3.5 0.02 0.20 0.09 93 1010.3
20260506143001 53 234 0.9 3.5 0.02 0.20 0.09 94 1010.3
20260506142900 53 238 0.0 3.5 0.02 0.20 0.09 93 1010.3
20260506142800 53 240 0.0 3.5 0.02 0.20 0.09 94 1010.4
20260506142700 53 234 0.0 6.1 0.02 0.20 0.09 93 1010.5
20260506142459 52 232 0.9 6.1 0.02 0.20 0.09 93 1010.3
20260506142359 52 229 0.9 6.1 0.02 0.20 0.09 93 1010.3
20260506142300 52 228 1.7 6.1 0.02 0.20 0.09 93 1010.4
20260506142200 52 227 1.7 6.1 0.02 0.20 0.09 93 1010.3
20260506142100 52 225 0.9 6.1 0.02 0.20 0.09 93 1010.3
20260506141859 52 222 1.7 6.1 0.01 0.19 0.08 93 1010.3
20260506141759 52 219 1.7 6.1 0.02 0.19 0.08 93 1010.4
20260506141700 53 220 0.0 3.5 0.02 0.19 0.08 93 1010.3
20260506141600 52 222 0.0 3.5 0.04 0.19 0.08 93 1010.3
20260506141502 52 219 0.9 3.5 0.04 0.19 0.08 93 1010.3
20260506141300 52 219 0.9 3.5 0.05 0.19 0.08 93 1010.4
20260506141200 52 220 0.0 3.5 0.06 0.19 0.08 93 1010.3
20260506141059 52 220 2.6 3.5 0.06 0.19 0.08 93 1010.5
20260506140959 52 222 2.6 3.5 0.06 0.19 0.08 93 1010.4
20260506140800 52 217 2.6 6.1 0.06 0.19 0.08 93 1010.3
20260506140700 52 217 0.9 6.1 0.06 0.19 0.08 93 1010.4
20260506140559 52 218 0.9 6.1 0.07 0.19 0.08 93 1010.4
20260506140459 52 217 1.7 6.1 0.07 0.19 0.08 93 1010.3
20260506140400 52 222 1.7 7.0 0.07 0.19 0.08 93 1010.5
20260506140300 52 223 1.7 7.0 0.07 0.19 0.08 93 1010.3
20260506140200 52 221 0.9 7.0 0.07 0.20 0.08 93 1010.3
20260506140001 52 218 0.9 7.0 0.07 0.20 0.08 93 1010.3
20260506135859 52 220 3.5 7.0 0.07 0.20 0.08 93 1010.2
20260506135759 52 223 2.6 7.0 0.07 0.20 0.08 93 1010.2
20260506135700 52 223 2.6 7.0 0.07 0.20 0.08 93 1010.2
20260506135600 52 223 3.5 7.0 0.07 0.20 0.08 93 1010.4
20260506135459 52 223 3.5 7.0 0.07 0.20 0.08 93 1010.3
20260506135259 52 218 2.6 7.0 0.08 0.20 0.08 93 1010.5
20260506135159 52 219 3.5 6.1 0.08 0.20 0.08 93 1010.4
20260506135059 52 225 1.7 5.2 0.08 0.20 0.08 93 1010.5
20260506134900 52 226 1.7 5.2 0.08 0.20 0.08 93 1010.4
20260506134800 52 225 1.7 5.2 0.08 0.20 0.08 93 1010.7
20260506134659 52 226 0.9 5.2 0.08 0.20 0.08 93 1010.2
20260506134559 52 229 0.9 7.0 0.08 0.20 0.08 93 1010.3
20260506134400 52 239 1.7 7.0 0.07 0.19 0.07 92 1010.4
20260506134259 52 243 0.0 7.8 0.07 0.19 0.07 92 1010.6
20260506134159 52 242 0.9 7.8 0.07 0.19 0.07 92 1010.5
20260506134100 52 239 1.7 7.8 0.07 0.19 0.07 92 1010.4
20260506134000 52 237 0.9 7.8 0.07 0.19 0.07 92 1010.5
20260506133659 52 233 1.7 7.8 0.07 0.19 0.07 92 1010.5
20260506133559 52 230 2.6 7.8 0.07 0.19 0.07 92 1010.9
20260506133500 52 224 1.7 7.8 0.07 0.19 0.07 92 1010.5
20260506133300 53 220 1.7 7.0 0.07 0.19 0.07 92 1010.5
20260506133200 53 218 1.7 7.0 0.07 0.19 0.07 92 1010.6
20260506133059 53 218 4.3 7.8 0.07 0.19 0.07 92 1010.7
20260506133001 53 213 4.3 7.8 0.07 0.19 0.07 92 1010.5
20260506132859 53 211 4.3 9.6 0.07 0.19 0.07 92 1010.7
20260506132759 53 215 4.3 9.6 0.07 0.19 0.07 92 1010.7
20260506132700 53 219 4.3 9.6 0.07 0.19 0.07 92 1010.7
20260506132500 53 225 3.5 9.6 0.07 0.19 0.07 92 1010.6
20260506132359 53 232 0.0 9.6 0.07 0.19 0.07 92 1010.5
20260506132259 53 231 2.6 9.6 0.07 0.19 0.07 91 1010.4
20260506132159 53 235 2.6 9.6 0.07 0.20 0.07 91 1010.5
20260506132100 53 239 4.3 9.6 0.07 0.20 0.07 91 1010.7
20260506132000 54 242 4.3 9.6 0.07 0.20 0.07 91 1010.6
20260506131900 54 244 3.5 9.6 0.07 0.20 0.07 91 1010.7
20260506131800 54 241 2.6 9.6 0.06 0.19 0.06 90 1010.5
20260506131700 54 234 5.2 9.6 0.05 0.18 0.05 90 1010.6
20260506131559 54 237 3.5 9.6 0.05 0.18 0.05 90 1010.6
20260506131501 55 232 3.5 9.6 0.04 0.17 0.04 89 1010.6
20260506131359 55 216 4.3 9.6 0.04 0.17 0.04 88 1010.4
20260506131200 55 203 4.3 9.6 0.02 0.15 0.02 87 1010.5
20260506131100 55 187 4.3 9.6 0.02 0.15 0.02 87 1010.4
20260506131000 56 156 0.0 3.5 0.02 0.17 0.02 87 1010.3
20260506130859 55 151 1.7 3.5 0.02 0.17 0.02 85 1010.4
20260506130759 55 136 1.7 3.5 0.02 0.17 0.02 85 1010.1
20260506130700 55 126 1.7 3.5 0.02 0.17 0.02 85 1010.1
20260506130600 56 119 0.9 3.5 0.01 0.15 0.01 86 1010.2
20260506130500 56 106 1.7 3.5 0.01 0.15 0.01 84 1010.1
20260506130359 56 96 0.0 3.5 0.01 0.15 0.01 83 1010.0
20260506130259 56 90 0.0 3.5 0.01 0.17 0.01 83 1010.2
20260506130159 56 88 0.0 3.5 0.01 0.17 0.01 83 1010.0
20260506130100 56 86 0.0 6.1 0.01 0.17 0.01 84 1009.9
20260506130001 56 79 0.0 6.1 0.01 0.17 0.01 83 1010.0
20260506125800 57 67 0.9 6.1 0.01 0.17 0.01 81 1009.9
20260506125700 57 65 0.9 7.0 0.01 0.17 0.01 81 1009.7
20260506125600 57 62 0.9 7.0 0.01 0.17 0.01 81 1009.8
20260506125500 57 58 1.7 9.6 0.01 0.17 0.01 81 1009.8
20260506125359 57 56 1.7 9.6 0.00 0.15 0.00 79 1009.7
20260506125300 57 52 1.7 9.6 0.00 0.15 0.00 79 1009.5
20260506125200 57 50 0.9 9.6 0.00 0.15 0.00 77 1009.6
20260506125000 58 53 1.7 9.6 0.00 0.17 0.00 74 1009.7
20260506124859 58 53 1.7 9.6 0.00 0.17 0.00 74 1009.5
20260506124759 58 53 1.7 9.6 0.00 0.17 0.00 74 1009.5
20260506124700 58 50 3.5 9.6 0.00 0.17 0.00 73 1009.4
20260506124600 59 52 4.3 9.6 0.00 0.17 0.00 72 1009.5
20260506124501 59 57 5.2 9.6 0.00 0.17 0.00 72 1009.4
20260506124400 59 60 3.5 7.0 0.00 0.17 0.00 72 1009.4
20260506124300 59 65 5.2 7.0 0.00 0.17 0.00 71 1009.5
20260506124200 60 71 1.7 7.0 0.00 0.18 0.00 71 1009.3
20260506124059 60 71 3.5 7.0 0.00 0.18 0.00 70 1009.4
20260506124000 60 71 1.7 7.0 0.00 0.18 0.00 70 1009.4
20260506123900 60 72 1.7 7.0 0.00 0.18 0.00 70 1009.4
20260506123700 60 74 4.3 7.0 0.00 0.19 0.00 69 1009.4
20260506123559 60 73 1.7 7.0 0.00 0.19 0.00 69 1009.1
20260506123459 60 71 2.6 7.0 0.00 0.19 0.00 69 1009.5
20260506123400 60 71 2.6 7.0 0.00 0.19 0.00 70 1009.3
20260506123200 60 68 2.6 7.0 0.00 0.20 0.00 69 1009.3
20260506123100 60 68 2.6 7.0 0.00 0.20 0.00 69 1009.2
20260506123001 60 69 1.7 7.0 0.00 0.20 0.00 70 1009.3
20260506122900 60 72 1.7 7.0 0.00 0.20 0.00 70 1009.0
20260506122800 60 74 2.6 7.0 0.00 0.20 0.00 69 1009.2
20260506122700 60 75 3.5 7.0 0.00 0.20 0.00 69 1009.3
20260506122600 60 75 3.5 7.0 0.00 0.21 0.00 69 1009.2
20260506122359 60 68 3.5 7.0 0.00 0.21 0.00 69 1009.2
20260506122300 61 64 2.6 7.0 0.00 0.21 0.00 69 1009.3
20260506122200 61 62 2.6 7.0 0.00 0.21 0.00 69 1009.0
20260506122100 61 59 3.5 7.0 0.00 0.21 0.00 70 1009.3
20260506122000 61 53 1.7 7.0 0.00 0.21 0.00 70 1009.3
20260506121800 61 47 3.5 7.0 0.00 0.21 0.00 69 1009.2
20260506121559 61 47 1.7 7.0 0.00 0.22 0.00 70 1009.2
20260506121501 61 48 1.7 7.0 0.00 0.22 0.00 70 1009.4
20260506121359 60 52 2.6 7.0 0.00 0.22 0.00 71 1009.1
20260506121159 60 54 3.5 6.1 0.00 0.24 0.00 70 1009.3
20260506121100 61 58 1.7 5.2 0.00 0.24 0.00 70 1009.2
20260506121000 61 63 1.7 5.2 0.00 0.25 0.00 70 1009.2
20260506120900 61 67 1.7 5.2 0.00 0.26 0.00 71 1009.2
20260506120659 61 72 1.7 5.2 0.00 0.30 0.00 71 1009.2
20260506120600 61 66 0.0 5.2 0.00 0.30 0.00 70 1008.9
20260506120400 61 55 1.7 5.2 0.00 0.30 0.00 70 1009.3
20260506120259 61 53 1.7 6.1 0.00 0.32 0.00 69 1009.1
20260506120100 61 47 1.7 6.1 0.00 0.32 0.00 70 1009.2
20260506120001 61 47 0.9 6.1 0.00 0.32 0.00 70 1008.9
20260506115859 62 48 1.7 6.1 0.00 0.32 0.00 70 1009.1
20260506115800 61 51 0.9 6.1 0.00 0.32 0.00 71 1009.2
20260506115700 61 53 2.6 6.1 0.00 0.34 0.00 70 1009.1
20260506115600 61 59 2.6 6.1 0.00 0.34 0.00 70 1009.1
20260506115459 61 68 1.7 6.1 0.00 0.35 0.00 71 1009.1
20260506115400 62 72 2.6 7.0 0.00 0.35 0.00 70 1009.3
20260506115300 62 77 2.6 7.0 0.00 0.35 0.00 70 1009.2
20260506115200 62 82 2.6 7.0 0.00 0.37 0.00 70 1009.3
20260506114959 61 85 1.7 7.0 0.00 0.37 0.00 70 1009.1
20260506114859 61 82 1.7 7.0 0.00 0.37 0.00 70 1009.2
20260506114800 61 78 1.7 7.0 0.00 0.37 0.00 70 1009.2
20260506114700 62 76 1.7 7.0 0.00 0.37 0.00 70 1009.2
20260506114502 62 59 3.5 7.0 0.00 0.37 0.00 69 1009.2
20260506114400 62 52 2.6 7.0 0.00 0.37 0.00 68 1009.2
20260506114300 63 41 0.9 3.5 0.00 0.37 0.00 68 1009.3
20260506114200 63 39 0.9 3.5 0.00 0.37 0.00 69 1009.2
20260506114100 63 38 0.0 3.5 0.00 0.37 0.00 70 1009.3
20260506113859 62 35 1.7 3.5 0.00 0.38 0.00 70 1009.3
20260506113759 62 33 0.9 3.5 0.00 0.38 0.00 70 1009.3
20260506113700 62 37 0.9 3.5 0.00 0.38 0.00 69 1009.2
20260506113500 62 90 0.0 3.5 0.00 0.38 0.00 71 1009.5
20260506113400 62 79 0.0 3.5 0.00 0.38 0.00 71 1009.2
20260506113259 62 77 0.0 3.5 0.00 0.38 0.00 71 1009.4
20260506113200 62 76 0.0 3.5 0.00 0.38 0.00 71 1009.2
20260506113001 61 74 0.0 7.0 0.00 0.39 0.00 71 1009.2
20260506112759 61 71 0.0 7.0 0.00 0.40 0.00 70 1009.3
20260506112700 60 69 1.7 7.0 0.00 0.40 0.00 71 1009.3
20260506112600 60 68 1.7 7.0 0.00 0.45 0.00 71 1009.4
20260506112500 60 66 1.7 7.0 0.00 0.45 0.00 71 1009.3
20260506112400 61 67 1.7 7.0 0.00 0.45 0.00 71 1009.3
20260506112259 61 67 1.7 7.0 0.00 0.45 0.00 73 1009.4
20260506112200 60 67 1.7 7.0 0.00 0.45 0.00 72 1009.5
20260506112100 60 63 3.5 7.0 0.00 0.48 0.00 72 1009.2
20260506112000 61 68 3.5 7.0 0.00 0.48 0.00 70 1009.3
20260506111900 61 90 1.7 1.7 0.00 0.50 0.00 67 1009.1
20260506111759 61 97 0.9 1.7 0.00 0.50 0.00 67 1009.2
20260506111659 61 104 0.0 1.7 0.00 0.51 0.00 66 1009.4
20260506111600 61 101 0.0 1.7 0.00 0.51 0.00 66 1009.4
20260506111501 62 101 0.0 1.7 0.00 0.51 0.00 66 1009.4
20260506111359 62 99 0.0 1.7 0.00 0.51 0.00 65 1009.3
20260506111300 61 97 0.0 1.7 0.00 0.51 0.00 66 1009.1
20260506111100 61 94 1.7 3.5 0.00 0.51 0.00 66 1009.4
20260506110900 61 94 0.0 3.5 0.00 0.51 0.00 67 1009.4
20260506110759 61 96 0.0 3.5 0.00 0.51 0.00 67 1009.4
20260506110659 61 102 0.9 3.5 0.00 0.51 0.00 66 1009.5
20260506110600 61 105 0.0 3.5 0.00 0.51 0.00 66 1009.4
20260506110500 61 105 0.0 3.5 0.00 0.51 0.00 67 1009.5
20260506110400 61 104 0.9 3.5 0.00 0.51 0.00 68 1009.5
20260506110259 61 102 0.9 3.5 0.00 0.51 0.00 67 1009.5
20260506110200 61 102 1.7 3.5 0.00 0.51 0.00 67 1009.5
20260506110100 61 102 0.9 3.5 0.00 0.51 0.00 66 1009.6
20260506110002 62 102 0.9 3.5 0.00 0.51 0.00 67 1009.4
20260506105900 62 97 1.7 3.5 0.00 0.51 0.00 67 1009.6
20260506105700 62 90 0.9 3.5 0.00 0.51 0.00 67 1009.5
20260506105559 62 88 0.0 3.5 0.00 0.51 0.00 68 1009.7
20260506105500 61 82 0.9 3.5 0.00 0.51 0.00 69 1009.7
20260506105400 61 75 1.7 5.2 0.00 0.51 0.00 69 1009.6
20260506105300 61 70 1.7 5.2 0.00 0.51 0.00 69 1009.4
20260506105200 61 70 0.9 5.2 0.00 0.51 0.00 69 1009.6
20260506105100 61 73 1.7 5.2 0.00 0.51 0.00 72 1009.8
20260506105000 61 72 1.7 5.2 0.00 0.51 0.00 72 1009.6
20260506104900 61 73 0.0 5.2 0.00 0.51 0.00 72 1009.6
20260506104800 62 80 0.0 5.2 0.00 0.51 0.00 72 1009.5
20260506104700 62 85 0.0 5.2 0.00 0.51 0.00 73 1009.4
20260506104300 62 106 1.7 3.5 0.00 0.51 0.00 72 1009.6
20260506104159 62 109 0.9 3.5 0.00 0.51 0.00 72 1009.6
20260506104100 62 109 0.9 3.5 0.00 0.51 0.00 71 1009.7
20260506104000 62 108 0.0 3.5 0.00 0.51 0.00 71 1009.5
20260506103900 62 108 1.7 3.5 0.00 0.51 0.00 69 1009.7
20260506103700 62 108 1.7 3.5 0.00 0.51 0.00 68 1009.7
20260506103300 63 135 0.0 1.7 0.00 0.51 0.00 66 1009.6
20260506103159 63 135 0.0 1.7 0.00 0.51 0.00 65 1009.6
20260506103100 63 135 0.0 1.7 0.00 0.51 0.00 66 1009.7
20260506103001 63 135 0.0 3.5 0.00 0.51 0.00 66 1009.7
20260506102859 62 127 0.0 3.5 0.00 0.51 0.00 65 1009.8
20260506102800 62 122 0.0 3.5 0.00 0.51 0.00 65 1009.9
20260506102700 62 129 0.0 3.5 0.00 0.51 0.00 65 1009.8
20260506102600 62 129 0.0 3.5 0.00 0.51 0.00 65 1009.7
20260506102459 62 127 0.0 3.5 0.00 0.51 0.00 67 1009.8
20260506102400 62 126 0.9 3.5 0.00 0.51 0.00 67 1009.9
20260506102300 61 126 0.0 3.5 0.00 0.51 0.00 67 1010.1
20260506102100 61 123 0.9 3.5 0.00 0.51 0.00 67 1010.1
20260506101859 61 121 0.9 3.5 0.00 0.51 0.00 67 1009.9
20260506101700 61 117 0.9 3.5 0.00 0.51 0.00 67 1009.9
20260506101600 61 119 0.9 3.5 0.00 0.51 0.00 67 1009.7
20260506101501 62 135 0.0 1.7 0.00 0.51 0.00 66 1009.8
20260506101300 61 147 0.0 1.7 0.00 0.51 0.00 65 1009.8
20260506101159 61 195 0.0 1.7 0.00 0.51 0.00 66 1009.7
20260506101100 61 227 0.9 1.7 0.00 0.51 0.00 64 1009.8
20260506101000 62 244 0.9 1.7 0.00 0.51 0.00 66 1009.7
20260506100800 62 247 0.0 3.5 0.00 0.51 0.00 65 1009.8
20260506100659 63 227 0.0 3.5 0.00 0.51 0.00 66 1009.8
20260506100600 63 219 0.0 3.5 0.00 0.51 0.00 66 1009.8
20260506100400 62 179 0.0 5.2 0.00 0.51 0.00 65 1009.9
20260506100300 62 170 0.0 5.2 0.00 0.51 0.00 66 1009.9
20260506100200 62 163 1.7 5.2 0.00 0.51 0.00 65 1009.8
20260506100100 62 155 1.7 5.2 0.00 0.51 0.00 65 1010.0
20260506100002 62 150 0.9 5.2 0.00 0.51 0.00 66 1010.0
20260506095600 61 141 0.9 5.2 0.00 0.51 0.00 64 1009.9
20260506095400 62 138 1.7 5.2 0.00 0.51 0.00 64 1009.8
20260506095300 62 131 0.0 3.5 0.00 0.51 0.00 66 1009.6
20260506095200 62 131 0.0 3.5 0.00 0.51 0.00 67 1009.9
20260506094959 62 128 0.0 3.5 0.00 0.51 0.00 69 1009.9
20260506094900 62 130 0.9 3.5 0.00 0.51 0.00 69 1009.9
20260506094800 62 129 0.9 3.5 0.00 0.51 0.00 69 1010.0
20260506094700 61 126 0.9 3.5 0.00 0.51 0.00 68 1009.8
20260506094601 62 124 0.9 3.5 0.00 0.51 0.00 68 1009.8
20260506094501 62 150 1.7 3.5 0.00 0.51 0.00 68 1009.9
20260506094300 64 235 0.0 1.7 0.00 0.51 0.00 69 1010.1
20260506094100 63 223 0.0 1.7 0.00 0.51 0.00 71 1010.1
20260506094000 62 209 0.0 1.7 0.00 0.51 0.00 69 1010.2
20260506093900 62 201 0.0 1.7 0.00 0.51 0.00 69 1009.9
20260506093759 62 192 0.0 1.7 0.00 0.51 0.00 68 1009.8
20260506093600 62 181 0.0 1.7 0.00 0.51 0.00 69 1009.7
20260506093500 62 170 0.0 1.7 0.00 0.51 0.00 70 1009.9
20260506093300 61 137 0.0 3.5 0.00 0.51 0.00 70 1009.8
20260506093059 60 120 0.0 3.5 0.00 0.51 0.00 71 1009.9
20260506093001 61 112 0.0 3.5 0.00 0.51 0.00 70 1009.9
20260506092900 61 105 0.0 3.5 0.00 0.51 0.00 70 1010.0
20260506092759 61 98 0.9 3.5 0.00 0.51 0.00 71 1010.0
20260506092500 60 78 0.0 3.5 0.00 0.51 0.00 72 1010.1
20260506092400 60 75 0.9 3.5 0.00 0.51 0.00 74 1010.0
20260506092300 60 75 2.6 3.5 0.00 0.51 0.00 73 1009.8
20260506092200 61 79 0.0 3.5 0.00 0.51 0.00 74 1009.9
20260506092100 61 88 0.0 3.5 0.00 0.51 0.00 74 1010.1
20260506092000 60 89 0.0 3.5 0.00 0.51 0.00 73 1010.0
20260506091900 60 89 0.0 3.5 0.00 0.51 0.00 73 1009.9
20260506091800 60 89 0.9 3.5 0.00 0.51 0.00 73 1010.0
20260506091700 60 100 2.6 3.5 0.00 0.51 0.00 74 1010.1
20260506091600 61 108 0.0 3.5 0.00 0.51 0.00 74 1010.1
20260506091501 60 110 0.0 3.5 0.00 0.51 0.00 73 1009.8
20260506091400 60 120 0.0 3.5 0.00 0.51 0.00 73 1009.8
20260506091200 61 122 2.6 3.5 0.00 0.51 0.00 72 1010.0
20260506091100 61 127 1.7 3.5 0.00 0.51 0.00 71 1010.0
20260506090900 62 125 0.0 3.5 0.00 0.51 0.00 72 1009.9
20260506090800 62 125 0.0 3.5 0.00 0.51 0.00 72 1010.0
20260506090600 62 133 2.6 3.5 0.00 0.51 0.00 70 1010.0
20260506090500 63 135 0.9 3.5 0.00 0.51 0.00 68 1009.9
20260506090400 62 125 0.0 3.5 0.00 0.51 0.00 67 1010.2
20260506090300 62 124 0.0 3.5 0.00 0.51 0.00 68 1010.0
20260506090200 61 113 0.9 3.5 0.00 0.51 0.00 68 1009.9
20260506090100 60 105 0.9 3.5 0.00 0.51 0.00 68 1010.2
20260506085900 60 103 0.0 3.5 0.00 0.51 0.00 69 1010.1
20260506085800 60 103 0.9 3.5 0.00 0.51 0.00 71 1009.8
20260506085700 59 94 0.0 3.5 0.00 0.51 0.00 72 1010.1
20260506085600 60 87 0.0 3.5 0.00 0.51 0.00 72 1009.7
20260506085500 60 84 0.0 3.5 0.00 0.51 0.00 72 1010.0
20260506085259 59 120 0.0 1.7 0.00 0.51 0.00 72 1009.9
20260506085200 59 157 0.0 1.7 0.00 0.51 0.00 72 1009.9
20260506085100 60 186 0.0 1.7 0.00 0.51 0.00 73 1010.0
20260506085000 59 197 0.0 1.7 0.00 0.51 0.00 72 1010.1
20260506084900 59 200 0.0 1.7 0.00 0.51 0.00 72 1009.9
20260506084800 59 209 0.0 1.7 0.00 0.51 0.00 73 1010.1
20260506084600 59 202 0.0 1.7 0.00 0.51 0.00 74 1010.1
20260506084502 59 201 1.7 1.7 0.00 0.51 0.00 75 1010.1
20260506084400 60 207 0.0 1.7 0.00 0.51 0.00 76 1009.9
20260506084300 59 204 0.0 1.7 0.00 0.51 0.00 75 1009.8
20260506084159 59 203 0.0 1.7 0.00 0.51 0.00 76 1010.0
20260506084000 59 190 0.0 1.7 0.00 0.51 0.00 75 1009.9
20260506083900 59 186 0.0 1.7 0.00 0.51 0.00 75 1010.0
20260506083800 60 162 0.0 1.7 0.00 0.51 0.00 76 1009.9
20260506083700 60 121 0.0 1.7 0.00 0.51 0.00 76 1009.9
20260506083500 59 98 0.0 3.5 0.00 0.51 0.00 76 1009.9
20260506083400 58 99 0.0 3.5 0.00 0.51 0.00 76 1010.2
20260506083300 58 99 0.0 3.5 0.00 0.51 0.00 76 1010.1
20260506083100 58 99 0.0 3.5 0.00 0.51 0.00 76 1009.9
20260506083001 58 99 0.0 3.5 0.00 0.51 0.00 78 1009.9
20260506082900 57 99 0.0 3.5 0.00 0.51 0.00 78 1010.0
20260506082800 57 105 0.0 3.5 0.00 0.51 0.00 78 1010.0
20260506082700 57 109 0.0 3.5 0.00 0.51 0.00 79 1009.9
20260506082600 58 117 1.7 3.5 0.00 0.51 0.00 79 1010.1
20260506082400 58 135 0.0 1.7 0.00 0.51 0.00 79 1009.9
20260506082300 57 135 0.0 1.7 0.00 0.51 0.00 79 1010.0
20260506082159 58 135 0.0 1.7 0.00 0.51 0.00 80 1010.0
20260506082100 58 142 0.0 1.7 0.00 0.51 0.00 80 1009.9
20260506082000 57 146 0.0 1.7 0.00 0.51 0.00 80 1009.9
20260506081900 57 149 0.0 1.7 0.00 0.51 0.00 80 1009.9
20260506081800 57 151 0.0 1.7 0.00 0.51 0.00 81 1010.0
20260506081502 57 152 0.0 1.7 0.00 0.51 0.00 82 1010.1
20260506081400 57 152 0.0 1.7 0.00 0.51 0.00 82 1010.3
20260506081300 57 152 0.0 1.7 0.00 0.51 0.00 82 1010.1
20260506081200 57 152 0.0 1.7 0.00 0.51 0.00 82 1010.0
20260506081059 57 140 0.0 1.7 0.00 0.51 0.00 82 1009.9
20260506081000 57 124 0.0 1.7 0.00 0.51 0.00 82 1010.1
20260506080900 57 90 0.0 1.7 0.00 0.51 0.00 82 1010.2
20260506080800 57 54 0.0 1.7 0.00 0.51 0.00 83 1010.3
20260506080700 57 52 0.0 3.5 0.00 0.51 0.00 83 1010.1
20260506080600 57 59 0.0 3.5 0.00 0.51 0.00 83 1009.9
20260506080500 57 64 0.0 3.5 0.00 0.51 0.00 84 1010.2
20260506080400 57 68 0.0 3.5 0.00 0.51 0.00 84 1010.3
20260506080300 56 70 0.0 3.5 0.00 0.51 0.00 84 1010.3
20260506073500 56 72 0.0 5.2 0.00 0.51 0.00 84 1010.1
20260506073400 56 72 0.0 5.2 0.00 0.51 0.00 84 1010.1
20260506073300 55 72 0.0 5.2 0.00 0.51 0.00 84 1010.0
20260506073200 55 71 1.7 5.2 0.00 0.51 0.00 84 1010.2
20260506073100 55 68 1.7 5.2 0.00 0.51 0.00 85 1010.2
20260506073002 55 74 1.7 3.5 0.00 0.51 0.00 85 1009.9
20260506072900 55 75 1.7 3.5 0.00 0.51 0.00 86 1010.2
20260506072800 54 78 2.6 3.5 0.00 0.51 0.00 86 1010.2
20260506072700 55 76 0.9 3.5 0.00 0.51 0.00 86 1010.2
20260506072600 55 81 0.9 3.5 0.00 0.51 0.00 86 1010.1
20260506072501 55 83 0.9 3.5 0.00 0.51 0.00 86 1010.2
20260506072400 55 90 0.0 1.7 0.00 0.51 0.00 87 1010.2
20260506072100 54 89 0.0 3.5 0.00 0.51 0.00 88 1010.5
20260506072000 54 89 0.0 3.5 0.00 0.51 0.00 88 1010.3
20260506071900 54 89 0.0 3.5 0.00 0.51 0.00 88 1010.4
20260506071800 53 89 0.0 3.5 0.00 0.51 0.00 88 1010.2
20260506071700 53 89 1.7 3.5 0.00 0.51 0.00 88 1010.1
20260506071600 53 89 1.7 3.5 0.00 0.51 0.00 88 1010.2
20260506071502 53 89 1.7 3.5 0.00 0.51 0.00 88 1010.2
20260506071400 53 89 1.7 3.5 0.00 0.51 0.00 88 1010.1
20260506071300 53 88 1.7 3.5 0.00 0.51 0.00 88 1010.0
20260506071200 54 89 0.0 3.5 0.00 0.51 0.00 89 1010.1
20260506071100 53 90 0.0 1.7 0.00 0.51 0.00 88 1010.2
20260506071000 53 90 0.0 1.7 0.00 0.51 0.00 88 1010.1
20260506070900 54 0 0.0 0.0 0.00 0.51 0.00 89 1010.2
20260506070800 54 158 0.0 1.7 0.00 0.51 0.00 89 1009.9
20260506070659 54 158 0.0 1.7 0.00 0.51 0.00 89 1010.1
20260506070600 54 161 0.0 1.7 0.00 0.51 0.00 89 1010.2
20260506070500 53 162 0.0 1.7 0.00 0.51 0.00 89 1010.1
20260506070300 53 157 0.0 1.7 0.00 0.51 0.00 89 1010.1
20260506062400 52 0 0.0 0.0 0.00 0.51 0.00 89 1010.3
20260506062200 53 0 0.0 0.0 0.00 0.51 0.00 89 1010.2
20260506062101 53 0 0.0 0.0 0.00 0.51 0.00 89 1010.2
20260506061900 52 0 0.0 0.0 0.00 0.51 0.00 89 1010.3
20260506061800 53 0 0.0 0.0 0.00 0.51 0.00 89 1010.2
20260506061700 53 0 0.0 0.0 0.00 0.51 0.00 89 1010.3
20260506061600 53 0 0.0 0.0 0.00 0.51 0.00 89 1010.2
20260506061400 53 0 0.0 0.0 0.00 0.51 0.00 90 1010.0
20260506061300 53 0 0.0 0.0 0.00 0.51 0.00 89 1010.2
20260506061200 53 0 0.0 0.0 0.00 0.51 0.00 89 1010.3
20260506061100 53 0 0.0 0.0 0.00 0.51 0.00 89 1010.3
20260506061000 53 0 0.0 0.0 0.00 0.51 0.00 88 1010.6
20260506060800 53 0 0.0 0.0 0.00 0.51 0.00 88 1010.4
20260506060600 54 0 0.0 0.0 0.00 0.51 0.00 88 1010.6
20260506060500 54 0 0.0 0.0 0.00 0.51 0.00 88 1010.4
20260506060400 53 0 0.0 0.0 0.00 0.51 0.00 89 1010.4
20260506060300 53 0 0.0 0.0 0.00 0.51 0.00 89 1010.6
20260506051401 48 0 0.0 0.0 0.00 0.51 0.00 94 1010.3
20260506051100 48 0 0.0 0.0 0.00 0.51 0.00 94 1010.4
20260506051000 48 0 0.0 0.0 0.00 0.51 0.00 94 1010.6
20260506050901 48 0 0.0 0.0 0.00 0.51 0.00 94 1010.4
20260506050800 48 0 0.0 0.0 0.00 0.51 0.00 94 1010.5
20260506050700 48 0 0.0 0.0 0.00 0.51 0.00 95 1010.6
20260506050500 48 0 0.0 0.0 0.00 0.51 0.00 95 1010.4
20260506050401 48 0 0.0 0.0 0.00 0.51 0.00 95 1010.6
20260506050201 48 0 0.0 0.0 0.00 0.51 0.00 95 1010.6
20260506045100 48 0 0.0 0.0 0.00 0.51 0.00 95 1010.5
20260506044900 48 0 0.0 0.0 0.00 0.51 0.00 95 1010.5
20260506044800 48 0 0.0 0.0 0.00 0.51 0.00 95 1010.6
20260506044700 48 0 0.0 0.0 0.00 0.51 0.00 95 1010.7
20260506044601 48 0 0.0 0.0 0.00 0.51 0.00 95 1010.7
20260506044501 48 0 0.0 0.0 0.00 0.51 0.00 95 1010.5
20260506044400 48 0 0.0 0.0 0.00 0.51 0.00 95 1010.4
20260506044200 48 0 0.0 0.0 0.00 0.51 0.00 95 1010.6
20260506044000 48 0 0.0 0.0 0.00 0.51 0.00 95 1010.3
20260506043900 48 0 0.0 0.0 0.00 0.51 0.00 95 1010.7
20260506043801 48 0 0.0 0.0 0.00 0.51 0.00 95 1010.5
20260506043701 48 0 0.0 0.0 0.00 0.51 0.00 95 1010.7
20260506043600 48 0 0.0 0.0 0.00 0.51 0.00 95 1010.6
20260506043500 48 0 0.0 0.0 0.00 0.51 0.00 95 1010.5
20260506043400 47 0 0.0 0.0 0.00 0.51 0.00 96 1010.5
20260506043201 47 0 0.0 0.0 0.00 0.51 0.00 96 1010.7
20260506043100 47 0 0.0 0.0 0.00 0.51 0.00 96 1010.7
20260506043002 48 0 0.0 0.0 0.00 0.51 0.00 96 1010.6
20260506042900 47 0 0.0 0.0 0.00 0.51 0.00 96 1010.6
20260506042800 47 0 0.0 0.0 0.00 0.51 0.00 96 1010.5
20260506042700 47 0 0.0 0.0 0.00 0.51 0.00 96 1010.5
20260506042601 47 0 0.0 0.0 0.00 0.51 0.00 96 1010.6
20260506042500 47 0 0.0 0.0 0.00 0.51 0.00 96 1010.4
20260506042400 47 0 0.0 0.0 0.00 0.51 0.00 96 1010.7
20260506042300 47 0 0.0 0.0 0.00 0.51 0.00 96 1010.5
20260506042200 47 0 0.0 0.0 0.00 0.51 0.00 96 1010.6
20260506042101 47 0 0.0 0.0 0.00 0.51 0.00 96 1010.5
20260506042000 47 0 0.0 0.0 0.00 0.51 0.00 96 1010.6
20260506041900 47 0 0.0 0.0 0.00 0.51 0.00 96 1010.5
20260506041800 47 0 0.0 0.0 0.00 0.51 0.00 96 1010.6
20260506041700 47 0 0.0 0.0 0.00 0.51 0.00 96 1010.3
20260506041601 47 0 0.0 0.0 0.00 0.51 0.00 96 1010.6
20260506041502 47 0 0.0 0.0 0.00 0.51 0.00 96 1010.5
20260506041400 47 0 0.0 0.0 0.00 0.51 0.00 96 1010.5
20260506041300 47 0 0.0 0.0 0.00 0.51 0.00 96 1010.3
20260506041200 47 0 0.0 0.0 0.00 0.51 0.00 96 1010.4
20260506041101 47 0 0.0 0.0 0.00 0.51 0.00 96 1010.4
20260506040900 47 0 0.0 0.0 0.00 0.51 0.00 96 1010.4
20260506040800 47 0 0.0 0.0 0.00 0.51 0.00 96 1010.3
20260506040700 47 0 0.0 0.0 0.00 0.51 0.00 96 1010.6
20260506040600 47 0 0.0 0.0 0.00 0.51 0.00 96 1010.8
20260506040400 47 0 0.0 0.0 0.00 0.51 0.00 96 1010.9
20260506040300 47 0 0.0 0.0 0.00 0.51 0.00 96 1010.7
20260506040002 47 0 0.0 0.0 0.00 0.51 0.00 96 1010.8
20260506035900 47 0 0.0 0.0 0.00 0.51 0.00 96 1010.7
20260506035500 47 0 0.0 0.0 0.00 0.51 0.00 96 1010.8
20260506035401 47 0 0.0 0.0 0.00 0.51 0.00 96 1010.8
20260506035200 47 0 0.0 0.0 0.00 0.51 0.00 96 1010.9
20260506035100 47 0 0.0 0.0 0.00 0.51 0.00 96 1010.7
20260506035000 47 0 0.0 0.0 0.00 0.51 0.00 96 1010.9
20260506034901 47 0 0.0 0.0 0.00 0.51 0.00 96 1010.7
20260506034800 47 0 0.0 0.0 0.00 0.51 0.00 96 1010.7
20260506034600 47 0 0.0 0.0 0.00 0.51 0.00 96 1010.8
20260506034400 47 0 0.0 0.0 0.00 0.51 0.00 96 1010.9
20260506034300 47 0 0.0 0.0 0.00 0.51 0.00 96 1010.7
20260506034201 47 0 0.0 0.0 0.00 0.51 0.00 96 1010.8
20260506034100 47 0 0.0 0.0 0.00 0.51 0.00 96 1011.0
20260506034000 47 0 0.0 0.0 0.00 0.51 0.00 96 1010.8
20260506033900 47 0 0.0 0.0 0.00 0.51 0.00 96 1010.9
20260506033701 48 90 0.0 1.7 0.00 0.51 0.00 96 1010.8
20260506033600 48 90 0.0 1.7 0.00 0.51 0.00 96 1011.0
20260506033300 48 90 0.0 1.7 0.00 0.51 0.00 96 1011.0
20260506033201 48 90 0.0 1.7 0.00 0.51 0.00 96 1011.0
20260506033100 48 90 0.0 1.7 0.00 0.51 0.00 96 1010.9
20260506033001 48 90 0.0 1.7 0.00 0.51 0.00 96 1011.0
20260506032901 48 90 0.0 1.7 0.00 0.51 0.00 96 1011.0
20260506032800 48 90 0.0 1.7 0.00 0.51 0.00 96 1011.0
20260506032700 48 0 0.0 0.0 0.00 0.51 0.00 96 1010.8
20260506032600 48 0 0.0 0.0 0.00 0.51 0.00 96 1010.8
20260506032501 48 0 0.0 0.0 0.00 0.51 0.00 96 1011.0
20260506032400 48 0 0.0 0.0 0.00 0.51 0.00 96 1010.7
20260506032300 48 0 0.0 0.0 0.00 0.51 0.00 96 1011.1
20260506032000 48 0 0.0 0.0 0.00 0.51 0.00 96 1010.8
20260506031900 48 0 0.0 0.0 0.00 0.51 0.00 96 1010.9
20260506031801 48 0 0.0 0.0 0.00 0.51 0.00 96 1011.0
20260506031700 48 0 0.0 0.0 0.00 0.51 0.00 96 1011.0
20260506031400 48 0 0.0 0.0 0.00 0.51 0.00 96 1010.8
20260506031200 48 0 0.0 0.0 0.00 0.51 0.00 96 1011.0
20260506031100 48 0 0.0 0.0 0.00 0.51 0.00 96 1010.8
20260506031000 48 0 0.0 0.0 0.00 0.51 0.00 96 1010.7
20260506030900 48 0 0.0 0.0 0.00 0.51 0.00 96 1011.0
20260506030801 48 0 0.0 0.0 0.00 0.51 0.00 96 1010.8
20260506030700 48 0 0.0 0.0 0.00 0.51 0.00 96 1010.9
20260506030500 48 0 0.0 0.0 0.00 0.51 0.00 96 1010.8
20260506030401 48 0 0.0 0.0 0.00 0.51 0.00 96 1010.8
20260506030300 48 0 0.0 0.0 0.00 0.51 0.00 96 1010.9
20260506030200 48 0 0.0 0.0 0.00 0.51 0.00 96 1010.8
20260506030100 48 0 0.0 0.0 0.00 0.51 0.00 96 1010.9
20260506030002 48 0 0.0 0.0 0.00 0.51 0.00 96 1010.9
20260506025801 48 0 0.0 0.0 0.00 0.51 0.00 96 1010.9
20260506025700 48 0 0.0 0.0 0.00 0.51 0.00 96 1011.0
20260506025500 48 0 0.0 0.0 0.00 0.51 0.00 96 1010.8
20260506025400 48 0 0.0 0.0 0.00 0.51 0.00 96 1010.8
20260506025301 48 0 0.0 0.0 0.00 0.51 0.00 96 1011.0
20260506025200 48 0 0.0 0.0 0.00 0.51 0.00 96 1010.9
20260506025000 48 0 0.0 0.0 0.00 0.51 0.00 96 1011.1
20260506024901 48 0 0.0 0.0 0.00 0.51 0.00 96 1011.1
20260506024801 48 0 0.0 0.0 0.00 0.51 0.00 96 1011.1
20260506024700 48 0 0.0 0.0 0.00 0.51 0.00 96 1010.9
20260506024502 48 0 0.0 0.0 0.00 0.51 0.00 96 1011.2
20260506024400 48 0 0.0 0.0 0.00 0.51 0.00 96 1011.0
20260506024301 48 0 0.0 0.0 0.00 0.51 0.00 96 1011.0
20260506024201 48 0 0.0 0.0 0.00 0.51 0.00 96 1011.1
20260506024000 49 0 0.0 0.0 0.00 0.51 0.00 94 1011.1
20260506023800 49 0 0.0 0.0 0.00 0.51 0.00 94 1011.0
20260506023701 49 0 0.0 0.0 0.00 0.51 0.00 94 1011.0
20260506023600 49 0 0.0 0.0 0.00 0.51 0.00 94 1011.0
20260506023500 49 0 0.0 0.0 0.00 0.51 0.00 94 1011.0
20260506023401 49 0 0.0 0.0 0.00 0.51 0.00 94 1011.1
20260506023300 49 0 0.0 0.0 0.00 0.51 0.00 94 1010.9
20260506023200 49 0 0.0 0.0 0.00 0.51 0.00 94 1011.1
20260506023002 49 0 0.0 0.0 0.00 0.51 0.00 94 1011.1
20260506022900 49 0 0.0 0.0 0.00 0.51 0.00 94 1011.2
20260506022800 49 0 0.0 0.0 0.00 0.51 0.00 94 1011.2
20260506022701 49 0 0.0 0.0 0.00 0.51 0.00 94 1011.2
20260506022601 49 0 0.0 0.0 0.00 0.51 0.00 94 1011.1
20260506022400 49 0 0.0 0.0 0.00 0.51 0.00 94 1011.3
20260506022300 49 0 0.0 0.0 0.00 0.51 0.00 94 1011.3
20260506022201 49 0 0.0 0.0 0.00 0.51 0.00 94 1011.3
20260506022101 49 0 0.0 0.0 0.00 0.51 0.00 94 1011.4
20260506022000 49 112 0.0 1.7 0.00 0.51 0.00 94 1011.4
20260506021900 49 112 0.0 1.7 0.00 0.51 0.00 94 1011.4
20260506021800 49 112 0.0 1.7 0.00 0.51 0.00 94 1011.4
20260506021700 49 112 0.0 1.7 0.00 0.51 0.00 94 1011.3
20260506021600 49 112 0.0 1.7 0.00 0.51 0.00 94 1011.5
20260506021502 49 112 0.0 1.7 0.00 0.51 0.00 94 1011.4
20260506021401 49 112 0.0 1.7 0.00 0.51 0.00 94 1011.4
20260506021301 49 112 0.0 1.7 0.00 0.51 0.00 94 1011.3
20260506021200 49 112 0.0 1.7 0.00 0.51 0.00 94 1011.0
20260506021100 49 112 0.0 1.7 0.00 0.51 0.00 94 1011.6
20260506021000 49 112 0.0 1.7 0.00 0.51 0.00 94 1011.6
20260506020901 49 112 0.0 1.7 0.00 0.51 0.00 94 1011.6
20260506020700 49 112 0.0 3.5 0.00 0.51 0.00 94 1011.5
20260506020600 49 112 0.0 3.5 0.00 0.51 0.00 94 1011.4
20260506020400 49 112 0.0 3.5 0.00 0.51 0.00 94 1011.5
20260506020301 49 112 0.0 3.5 0.00 0.51 0.00 94 1011.7
20260506020201 49 114 0.0 3.5 0.00 0.51 0.00 94 1011.6
20260506020101 49 122 0.0 7.0 0.00 0.51 0.00 94 1011.6
20260506015900 49 125 0.9 7.0 0.00 0.51 0.00 94 1011.7
20260506015700 49 128 1.7 7.0 0.00 0.51 0.00 94 1011.6
20260506015600 49 132 1.7 7.0 0.00 0.51 0.00 94 1011.5
20260506015501 49 137 1.7 7.0 0.00 0.51 0.00 94 1011.7
20260506015401 49 143 1.7 7.0 0.00 0.51 0.00 94 1011.6
20260506015200 50 158 0.9 7.0 0.00 0.51 0.00 94 1011.7
20260506015100 50 158 2.6 7.0 0.00 5.25 0.00 94 1011.9
20260506015000 49 0 0.0 0.0 0.00 5.25 0.00 96 1011.6
20260506014901 49 0 0.0 0.0 0.00 5.25 0.00 96 1011.6
20260506014800 49 0 0.0 0.0 0.00 5.25 0.00 96 1011.8
20260506014700 49 0 0.0 0.0 0.00 5.25 0.00 96 1011.8
20260506014502 49 0 0.0 0.0 0.00 5.25 0.00 96 1011.5
20260506014400 49 0 0.0 0.0 0.00 5.25 0.00 96 1011.8
20260506014301 49 0 0.0 0.0 0.00 0.51 0.00 96 1011.7
20260506014201 49 0 0.0 0.0 0.00 0.51 0.00 96 1011.8
20260506014100 49 0 0.0 0.0 0.00 0.51 0.00 96 1011.8
20260506013801 49 0 0.0 0.0 0.00 0.51 0.00 96 1011.7
20260506013701 49 0 0.0 0.0 0.00 0.51 0.00 96 1011.6
20260506013600 49 0 0.0 0.0 0.00 0.51 0.00 96 1011.9
20260506013500 49 0 0.0 0.0 0.00 0.51 0.00 96 1011.6
20260506013400 49 0 0.0 0.0 0.00 0.51 0.00 96 1011.6
20260506013301 49 0 0.0 0.0 0.00 0.51 0.00 96 1011.5
20260506013200 49 0 0.0 0.0 0.00 0.51 0.00 96 1011.4
20260506013100 49 0 0.0 0.0 0.00 0.51 0.00 96 1011.6
20260506012900 49 0 0.0 0.0 0.00 0.51 0.00 96 1011.4
20260506012800 49 0 0.0 0.0 0.00 0.51 0.00 96 1011.7
20260506012700 49 0 0.0 0.0 0.00 0.51 0.00 96 1011.6
20260506012600 49 0 0.0 0.0 0.00 0.51 0.00 96 1011.6
20260506012501 49 0 0.0 0.0 0.00 0.51 0.00 96 1011.5
20260506012400 49 0 0.0 0.0 0.00 0.51 0.00 96 1011.5
20260506012300 49 0 0.0 0.0 0.00 0.51 0.00 96 1011.4
20260506012200 49 0 0.0 0.0 0.00 0.51 0.00 96 1011.6
20260506012101 49 0 0.0 0.0 0.00 0.51 0.00 96 1011.4
20260506012000 49 0 0.0 0.0 0.00 0.51 0.00 96 1011.5
20260506011900 49 0 0.0 0.0 0.00 0.51 0.00 96 1011.5
20260506011800 49 0 0.0 0.0 0.00 0.51 0.00 96 1011.5
20260506011701 49 0 0.0 0.0 0.00 0.51 0.00 96 1011.7
20260506011600 49 0 0.0 0.0 0.00 0.51 0.00 96 1011.5
20260506011502 49 0 0.0 0.0 0.00 0.51 0.00 96 1011.6
20260506011400 49 0 0.0 0.0 0.00 0.51 0.00 96 1011.6
20260506011300 49 0 0.0 0.0 0.00 0.51 0.00 96 1011.4
20260506011100 49 0 0.0 0.0 0.00 0.51 0.00 96 1011.5
20260506011000 49 112 0.0 1.7 0.00 0.51 0.00 96 1011.7
20260506010900 49 112 0.0 1.7 0.00 0.51 0.00 96 1011.5
20260506010801 49 112 0.0 1.7 0.00 0.51 0.00 96 1011.5
20260506010701 49 112 0.0 1.7 0.00 0.51 0.00 96 1011.4
20260506010600 49 112 0.0 1.7 0.00 0.51 0.00 96 1011.6
20260506010400 49 111 0.0 1.7 0.00 0.51 0.00 96 1011.5
20260506010300 49 112 0.0 1.7 0.00 0.51 0.00 96 1011.5
20260506010101 49 112 0.0 1.7 0.00 0.51 0.00 96 1011.6
20260506010003 49 113 0.0 1.7 0.00 0.51 0.00 96 1011.6
20260506005901 49 113 0.0 1.7 0.00 0.51 0.00 96 1011.6
20260506005800 49 113 0.0 1.7 0.00 0.51 0.00 96 1011.6
20260506005700 49 114 0.0 1.7 0.00 0.51 0.00 96 1011.7
20260506005600 49 114 0.0 1.7 0.00 0.51 0.00 96 1011.5
20260506005501 49 114 0.0 1.7 0.00 0.51 0.00 96 1011.3
20260506005401 49 115 0.0 1.7 0.00 0.51 0.00 96 1011.4
20260506005300 49 115 0.0 1.7 0.00 0.51 0.00 96 1011.5
20260506005100 49 118 0.0 1.7 0.00 0.51 0.00 96 1011.6
20260506005001 49 112 0.0 1.7 0.00 0.51 0.00 96 1011.3
20260506004801 49 0 0.0 0.0 0.00 0.51 0.00 97 1011.5
20260506004700 49 0 0.0 0.0 0.00 0.51 0.00 97 1011.5
20260506004600 49 0 0.0 0.0 0.00 0.51 0.00 97 1011.5
20260506004503 49 0 0.0 0.0 0.00 0.51 0.00 97 1011.4
20260506004400 49 0 0.0 0.0 0.00 0.51 0.00 97 1011.6
20260506004200 49 0 0.0 0.0 0.00 0.51 0.00 97 1011.5
20260506004101 49 0 0.0 0.0 0.00 0.51 0.00 97 1011.5
20260506003901 49 0 0.0 0.0 0.00 0.51 0.00 97 1011.6
20260506003800 49 0 0.0 0.0 0.00 0.51 0.00 97 1011.4
20260506003601 49 0 0.0 0.0 0.00 0.51 0.00 97 1011.6
20260506003501 49 0 0.0 0.0 0.00 0.51 0.00 97 1011.7
20260506003401 49 0 0.0 0.0 0.00 0.51 0.00 97 1011.6
20260506003300 49 0 0.0 0.0 0.00 0.51 0.00 97 1011.6
20260506003200 49 0 0.0 0.0 0.00 0.51 0.00 97 1011.5
20260506003101 49 0 0.0 0.0 0.00 0.51 0.00 97 1011.5
20260506002901 49 0 0.0 0.0 0.00 0.51 0.00 97 1011.6
20260506002801 49 0 0.0 0.0 0.00 0.51 0.00 97 1011.8
20260506002701 49 0 0.0 0.0 0.00 0.51 0.00 97 1011.7
20260506002301 49 0 0.0 0.0 0.00 0.51 0.00 96 1011.7
20260506002201 49 0 0.0 0.0 0.00 0.51 0.00 96 1011.8
20260506002100 49 0 0.0 0.0 0.00 0.51 0.00 96 1011.8
20260506002000 49 0 0.0 0.0 0.00 0.51 0.00 96 1011.8
20260506001901 49 0 0.0 0.0 0.00 0.51 0.00 96 1011.8
20260506001801 49 0 0.0 0.0 0.00 0.51 0.00 96 1011.9
20260506001601 49 0 0.0 0.0 0.00 0.51 0.00 96 1012.0
20260506001502 50 0 0.0 0.0 0.00 0.51 0.00 96 1011.8
20260506001401 50 0 0.0 0.0 0.00 0.51 0.00 96 1012.2
20260506001301 50 0 0.0 0.0 0.00 0.51 0.00 96 1012.3
20260506001200 50 0 0.0 0.0 0.00 0.51 0.00 96 1011.8
20260506001100 50 0 0.0 0.0 0.00 0.51 0.00 96 1011.8
20260506001000 50 0 0.0 0.0 0.00 0.51 0.00 97 1012.1
20260506000901 50 0 0.0 0.0 0.00 0.51 0.00 96 1012.0
20260506000701 50 0 0.0 0.0 0.00 0.51 0.00 96 1012.1
20260506000500 50 0 0.0 0.0 0.00 0.51 0.00 96 1012.0
20260506000401 50 0 0.0 0.0 0.00 0.51 0.00 96 1012.0
20260506000302 50 0 0.0 0.0 0.00 0.51 0.00 96 1012.0
20260506000200 50 0 0.0 0.0 0.00 0.51 0.00 96 1012.2
20260506000100 50 0 0.0 0.0 0.00 0.51 0.00 96 1012.2
20260506000002 50 0 0.0 0.0 0.00 0.51 0.00 96 1012.2
20260505235900 50 0 0.0 0.0 0.00 0.51 0.00 96 1012.1
20260505235800 50 0 0.0 0.0 0.00 0.51 0.00 96 1012.1
20260505235700 50 0 0.0 0.0 0.00 0.51 0.00 96 1012.1
20260505235501 50 0 0.0 0.0 0.00 0.51 0.00 96 1012.3
20260505235401 50 0 0.0 0.0 0.00 0.51 0.00 96 1012.1
20260505235300 50 0 0.0 0.0 0.00 0.51 0.00 96 1012.1
20260505235200 50 0 0.0 0.0 0.00 0.51 0.00 96 1012.1
20260505235101 50 0 0.0 0.0 0.00 0.51 0.00 96 1012.1
20260505235001 50 0 0.0 0.0 0.00 0.51 0.00 96 1012.3
20260505234900 50 0 0.0 0.0 0.00 0.51 0.00 96 1012.1
20260505234800 50 0 0.0 0.0 0.00 0.51 0.00 96 1012.1
20260505234701 50 0 0.0 0.0 0.00 0.51 0.00 95 1012.2
20260505234601 50 0 0.0 0.0 0.00 0.51 0.00 95 1012.3
20260505234503 50 0 0.0 0.0 0.00 0.51 0.00 95 1012.2
20260505234401 50 0 0.0 0.0 0.00 0.51 0.00 95 1012.4
20260505234300 50 0 0.0 0.0 0.00 0.51 0.00 95 1012.4
20260505234200 50 0 0.0 0.0 0.00 0.51 0.00 95 1012.1
20260505234101 50 0 0.0 0.0 0.00 0.51 0.00 95 1012.1
20260505234001 50 0 0.0 0.0 0.00 0.51 0.00 95 1012.1
20260505233600 50 0 0.0 0.0 0.00 0.51 0.00 95 1012.3
20260505233501 50 0 0.0 0.0 0.00 0.51 0.00 95 1012.2
20260505233401 50 0 0.0 0.0 0.00 0.51 0.00 95 1012.4
20260505233300 50 0 0.0 0.0 0.00 0.51 0.00 95 1012.4
20260505233200 50 0 0.0 0.0 0.00 0.51 0.00 95 1012.4
20260505233100 51 0 0.0 0.0 0.00 0.51 0.00 95 1012.3
20260505233002 51 0 0.0 0.0 0.00 0.51 0.00 95 1012.3
20260505232900 51 0 0.0 0.0 0.00 0.51 0.00 95 1012.4
20260505232800 51 0 0.0 0.0 0.00 0.51 0.00 95 1012.4
20260505232701 51 0 0.0 0.0 0.00 0.51 0.00 95 1012.4
20260505232501 51 0 0.0 0.0 0.00 0.51 0.00 95 1012.4
20260505232300 51 0 0.0 0.0 0.00 0.51 0.00 95 1012.3
20260505232200 51 0 0.0 0.0 0.00 0.51 0.00 95 1012.4
20260505232101 51 0 0.0 0.0 0.00 0.51 0.00 95 1012.4
20260505231900 51 135 0.0 1.7 0.00 0.51 0.00 95 1012.3
20260505231800 51 135 0.0 1.7 0.00 0.51 0.00 95 1012.6
20260505231700 51 135 0.0 1.7 0.00 0.51 0.00 95 1012.6
20260505231601 51 135 0.0 1.7 0.00 0.51 0.00 95 1012.2
20260505231502 51 135 0.0 1.7 0.00 0.51 0.00 95 1012.3
20260505231400 51 135 0.0 1.7 0.00 0.51 0.00 95 1012.5
20260505231301 51 135 0.0 1.7 0.00 0.51 0.00 95 1012.0
20260505231201 51 135 0.0 1.7 0.00 0.51 0.00 95 1012.2
20260505231000 51 135 0.0 1.7 0.00 0.51 0.00 95 1012.4
20260505230900 51 135 0.0 1.7 0.00 0.51 0.00 95 1012.4
20260505230701 51 0 0.0 0.0 0.00 0.51 0.00 95 1012.5
20260505230601 51 158 0.0 1.7 0.00 0.51 0.00 95 1012.3
20260505230501 51 158 0.0 1.7 0.00 0.51 0.00 95 1012.4
20260505230400 51 158 0.0 1.7 0.00 0.51 0.00 95 1012.4
20260505230301 51 149 0.0 3.5 0.00 0.51 0.00 95 1012.4
20260505230201 51 149 0.0 3.5 0.00 0.51 0.00 95 1012.3
20260505230101 51 150 0.0 3.5 0.00 0.51 0.00 95 1012.4
20260505230002 51 151 0.0 3.5 0.00 0.51 0.00 95 1012.4
20260505225800 51 153 0.0 3.5 0.00 0.51 0.00 95 1012.4
20260505225700 51 154 0.0 3.5 0.00 0.51 0.00 95 1012.4
20260505225601 51 155 0.9 3.5 0.00 0.51 0.00 95 1012.4
20260505225501 51 155 0.0 3.5 0.00 0.51 0.00 95 1012.3
20260505225401 51 155 0.9 3.5 0.00 0.51 0.00 95 1012.3
20260505225300 51 157 0.0 3.5 0.00 0.51 0.00 95 1012.4
20260505225200 51 157 0.0 3.5 0.00 0.51 0.00 95 1012.3
20260505225101 51 157 0.0 3.5 0.00 0.51 0.00 95 1012.3
20260505225001 51 157 0.9 3.5 0.00 0.51 0.00 95 1012.5
20260505224901 51 157 0.9 3.5 0.00 0.51 0.00 95 1012.3
20260505224700 51 158 1.7 6.1 0.00 0.51 0.00 95 1012.3
20260505224600 51 157 1.7 6.1 0.00 0.51 0.00 95 1012.3
20260505224400 51 159 0.0 6.1 0.00 0.51 0.00 95 1012.3
20260505224301 51 156 1.7 6.1 0.00 0.51 0.00 95 1012.2
20260505224201 51 154 0.0 6.1 0.00 0.51 0.00 95 1012.3
20260505224101 51 155 0.9 6.1 0.00 0.51 0.00 95 1012.3
20260505224000 51 155 0.0 6.1 0.00 0.51 0.00 95 1012.3
20260505223801 51 154 0.0 6.1 0.00 0.51 0.00 95 1012.2
20260505223701 51 155 2.6 6.1 0.00 0.51 0.00 95 1012.3
20260505223601 51 149 1.7 6.1 0.00 0.51 0.00 95 1012.4
20260505223500 51 145 1.7 6.1 0.00 0.51 0.00 95 1012.4
20260505223400 51 141 1.7 6.1 0.00 0.51 0.00 95 1012.4
20260505223300 51 137 0.9 6.1 0.00 0.51 0.00 95 1012.3
20260505223201 51 136 0.9 6.1 0.00 0.51 0.00 95 1012.5
20260505223101 51 134 1.7 6.1 0.00 0.51 0.00 95 1012.3
20260505223002 51 135 0.9 6.1 0.00 0.51 0.00 95 1012.3
20260505222901 51 137 1.7 6.1 0.00 0.51 0.00 95 1012.1
20260505222700 51 132 1.7 5.2 0.00 0.51 0.00 95 1012.1
20260505222600 51 138 1.7 5.2 0.00 0.51 0.00 95 1012.3
20260505222501 51 139 0.9 5.2 0.00 0.51 0.00 95 1012.3
20260505222401 51 144 1.7 5.2 0.00 0.51 0.00 95 1012.0
20260505222201 51 146 0.0 5.2 0.00 0.51 0.00 95 1012.2
20260505222000 51 143 0.9 5.2 0.00 0.51 0.00 95 1012.3
20260505221900 51 140 0.9 5.2 0.00 0.51 0.00 95 1012.4
20260505221801 51 140 1.7 5.2 0.00 0.51 0.00 95 1012.5
20260505221601 51 137 0.0 5.2 0.00 0.51 0.00 95 1012.4
20260505221401 51 132 1.7 5.2 0.00 0.51 0.00 95 1012.4
20260505221301 51 138 0.9 3.5 0.00 0.51 0.00 95 1012.2
20260505221200 51 137 1.7 3.5 0.00 0.51 0.00 95 1012.2
20260505221100 51 139 0.9 3.5 0.00 0.51 0.00 95 1012.3
20260505221001 51 137 0.9 3.5 0.00 0.51 0.00 95 1012.2
20260505220901 51 137 0.9 3.5 0.00 0.51 0.00 95 1012.3
20260505220701 51 136 1.7 5.2 0.00 0.51 0.00 95 1012.3
20260505220600 51 133 1.7 5.2 0.00 0.51 0.00 95 1012.4
20260505220500 51 132 1.7 5.2 0.00 0.51 0.00 95 1012.2
20260505220401 51 132 1.7 5.2 0.00 0.51 0.00 95 1012.2
20260505220301 51 127 0.0 5.2 0.00 0.51 0.00 95 1012.4
20260505220101 51 121 1.7 5.2 0.00 0.51 0.00 95 1012.5
20260505220002 52 118 0.9 5.2 0.00 0.51 0.00 95 1012.3
20260505215901 52 113 1.7 5.2 0.00 0.51 0.51 95 1012.4
20260505215701 52 108 1.7 5.2 0.00 0.51 0.51 95 1012.3
20260505215601 52 109 0.9 3.5 0.00 0.51 0.51 95 1012.3
20260505215501 51 112 0.0 3.5 0.00 0.51 0.51 95 1012.0
20260505215301 52 109 0.9 3.5 0.00 0.51 0.51 95 1012.1
20260505215201 52 107 0.9 3.5 0.00 0.51 0.51 95 1012.3
20260505215100 52 110 1.7 3.5 0.00 0.51 0.51 95 1012.3
20260505215000 51 112 0.0 3.5 0.00 0.51 0.51 95 1012.3
20260505214901 51 121 0.0 3.5 0.00 0.51 0.51 95 1012.3
20260505214801 51 126 0.0 3.5 0.00 0.51 0.51 95 1012.2
20260505214701 51 125 0.0 3.5 0.00 0.51 0.51 95 1012.2
20260505214600 52 123 0.9 3.5 0.00 0.51 0.51 95 1012.3
20260505214502 51 127 0.0 3.5 0.00 0.51 0.51 95 1012.5
20260505214400 51 132 0.0 3.5 0.00 0.51 0.51 95 1012.3
20260505214300 52 133 0.0 3.5 0.00 0.51 0.51 95 1012.2
20260505214201 52 133 0.9 3.5 0.00 0.51 0.51 95 1012.1
20260505214101 52 141 0.9 3.5 0.00 0.51 0.51 95 1012.3
20260505214000 52 145 0.0 3.5 0.00 0.51 0.51 95 1012.3
20260505213900 52 140 0.0 3.5 0.00 0.51 0.51 96 1012.3
20260505213800 52 138 0.0 3.5 0.00 0.51 0.51 96 1012.0
20260505213701 52 138 0.0 3.5 0.00 0.51 0.51 96 1012.2
20260505213501 52 135 0.0 3.5 0.00 0.51 0.51 96 1012.3
20260505213400 52 135 0.9 3.5 0.00 0.51 0.51 96 1012.1
20260505213300 52 135 0.0 3.5 0.00 0.51 0.51 96 1012.3
20260505213201 52 135 0.0 3.5 0.00 0.51 0.51 96 1012.3
20260505213101 51 132 0.0 3.5 0.00 0.51 0.51 96 1012.5
20260505213003 52 131 0.0 3.5 0.00 0.51 0.51 96 1012.5
20260505212901 52 130 0.0 3.5 0.00 0.51 0.51 96 1012.4
20260505212801 51 133 0.0 3.5 0.00 0.51 0.51 96 1012.3
20260505212700 51 136 0.0 3.5 0.00 0.51 0.51 96 1012.4
20260505212600 51 136 0.9 3.5 0.00 0.51 0.51 96 1012.5
20260505212301 51 137 0.0 1.7 0.00 0.51 0.51 96 1012.6
20260505212201 51 141 0.0 1.7 0.00 0.51 0.51 96 1012.6
20260505212100 51 149 0.9 1.7 0.00 0.51 0.51 96 1012.3
20260505211901 51 150 0.0 3.5 0.00 0.51 0.51 96 1012.3
20260505211801 51 148 0.9 3.5 0.00 0.51 0.51 96 1012.2
20260505211701 51 148 0.0 3.5 0.00 0.51 0.51 96 1012.3
20260505211600 51 139 0.0 3.5 0.00 0.51 0.51 96 1012.4
20260505211502 51 141 0.0 3.5 0.00 0.51 0.51 96 1012.4
20260505211401 51 141 0.0 3.5 0.00 0.51 0.51 96 1012.3
20260505211300 51 141 0.0 3.5 0.00 0.51 0.51 96 1012.5
20260505211200 51 140 0.0 3.5 0.00 0.51 0.51 96 1012.4
20260505211101 51 137 0.0 3.5 0.00 0.51 0.51 96 1012.4
20260505211001 51 137 0.0 3.5 0.00 0.51 0.51 96 1012.3
20260505210901 51 138 1.7 3.5 0.00 0.51 0.51 96 1012.5
20260505210801 51 136 0.0 3.5 0.00 0.51 0.51 96 1012.5
20260505210700 51 128 0.9 3.5 0.00 0.51 0.51 96 1012.4
20260505210601 51 158 0.0 1.7 0.00 0.51 0.51 96 1012.5
20260505210501 51 0 0.0 0.0 0.00 0.51 0.51 96 1012.3
20260505210401 51 0 0.0 0.0 0.00 0.51 0.51 96 1012.3
20260505210301 51 0 0.0 0.0 0.00 0.51 0.51 96 1012.4
20260505210200 51 0 0.0 0.0 0.00 0.51 0.51 96 1012.3
20260505210100 51 0 0.0 0.0 0.00 0.51 0.51 96 1012.4
20260505205900 51 0 0.0 0.0 0.00 0.51 0.51 96 1012.5
20260505205801 51 0 0.0 0.0 0.00 0.51 0.51 96 1012.3
20260505205501 51 0 0.0 0.0 0.00 0.51 0.51 96 1012.1
20260505205401 51 0 0.0 0.0 0.00 0.51 0.51 96 1012.3
20260505205101 51 0 0.0 0.0 0.00 0.51 0.51 96 1012.1
20260505205000 51 0 0.0 0.0 0.00 0.51 0.51 96 1012.0
20260505204801 51 0 0.0 0.0 0.00 0.51 0.51 96 1012.3
20260505204701 51 0 0.0 0.0 0.00 0.51 0.51 96 1012.3
20260505204601 51 0 0.0 0.0 0.00 0.51 0.51 96 1012.3
20260505204502 51 0 0.0 0.0 0.00 0.51 0.51 96 1012.3
20260505204401 51 0 0.0 0.0 0.00 0.51 0.51 96 1012.2
20260505204200 51 0 0.0 0.0 0.00 0.51 0.51 96 1012.3
20260505204100 52 0 0.0 0.0 0.00 0.51 0.51 96 1012.3
20260505204001 51 0 0.0 0.0 0.00 0.51 0.51 96 1012.1
20260505203701 51 0 0.0 0.0 0.00 0.51 0.51 96 1012.1
20260505203601 51 0 0.0 0.0 0.00 0.51 0.51 96 1012.2
20260505203500 51 0 0.0 0.0 0.00 0.51 0.51 96 1012.2
20260505203401 51 0 0.0 0.0 0.00 0.51 0.51 96 1012.3
20260505203301 51 0 0.0 0.0 0.00 0.51 0.51 96 1012.2
20260505203201 52 0 0.0 0.0 0.00 0.51 0.51 96 1012.0
20260505203101 52 0 0.0 0.0 0.00 0.51 0.51 96 1012.3
20260505203003 52 0 0.0 0.0 0.00 0.51 0.51 96 1012.2
20260505202901 52 0 0.0 0.0 0.00 0.51 0.51 96 1012.1
20260505202801 52 0 0.0 0.0 0.00 0.51 0.51 96 1012.1
20260505202700 52 0 0.0 0.0 0.00 0.51 0.51 95 1012.2
20260505202500 52 0 0.0 0.0 0.00 0.51 0.51 95 1012.2
20260505202401 52 0 0.0 0.0 0.00 0.51 0.51 95 1012.2
20260505202301 52 0 0.0 0.0 0.00 0.51 0.51 95 1012.1
20260505202201 52 0 0.0 0.0 0.00 0.51 0.51 95 1012.0
20260505202000 52 0 0.0 0.0 0.00 0.51 0.51 95 1012.0
20260505201900 52 0 0.0 0.0 0.00 0.51 0.51 95 1012.1
20260505201800 52 0 0.0 0.0 0.00 0.51 0.51 95 1012.1
20260505201502 52 0 0.0 0.0 0.00 0.51 0.51 95 1011.9
20260505201401 52 0 0.0 0.0 0.00 0.51 0.51 95 1011.8
20260505201301 52 0 0.0 0.0 0.00 0.51 0.51 95 1012.0
20260505201201 52 0 0.0 0.0 0.00 0.51 0.51 95 1011.8
20260505201100 52 0 0.0 0.0 0.00 0.51 0.51 95 1012.0
20260505201001 52 0 0.0 0.0 0.00 0.51 0.51 95 1012.1
20260505200901 52 0 0.0 0.0 0.00 0.51 0.51 95 1012.1
20260505200801 52 0 0.0 0.0 0.00 0.51 0.51 95 1012.0
20260505200700 52 0 0.0 0.0 0.00 0.51 0.51 95 1012.1
20260505200500 52 0 0.0 0.0 0.00 0.51 0.51 95 1012.2
20260505200401 52 158 0.0 1.7 0.00 0.51 0.51 95 1012.0
20260505200301 52 158 0.0 3.5 0.00 0.51 0.51 95 1012.2
20260505200201 52 158 0.0 3.5 0.00 0.51 0.51 95 1011.9
20260505200101 52 152 0.0 3.5 0.00 0.51 0.51 95 1011.9
20260505200003 52 153 0.0 3.5 0.00 0.51 0.51 95 1011.9
20260505195901 52 154 0.0 3.5 0.00 0.51 0.51 95 1011.9